Hays, KS

6:49 PM CDT on August 18, 2019 (GMT -0500)
Hays Regional

Weather History for KHYS - July, 2019

Change the Weather History Date:

Tuesday, July 16, 2019

  Actual Average Record
Temperature  
Mean Temperature 82 °F -  
Max Temperature 97 °F 91 °F 107 °F (2003)
Min Temperature 68 °F 65 °F 59 °F (2014)
Cooling Degree Days 18    
Growing Degree Days 32 (Base 50)    
Moisture  
Dew Point 68 °F    
Average Humidity 65    
Maximum Humidity 93    
Minimum Humidity 36    
Precipitation  
Precipitation 0.00 in - - ()
Sea Level Pressure  
Sea Level Pressure 29.85 in    
Wind  
Wind Speed 8 mph (SSE)    
Max Wind Speed 17 mph    
Max Gust Speed 24 mph    
Visibility 10 miles    
Events      
Averages and records for this station are not official NWS values.
T = Trace of Precipitation, MM = Missing Value Source: NWS Daily Summary

Daily Weather History Graph

Daily Weather History Graph

Search for Another Location

Airport or City:

Astronomy

Jul. 16, 2019 Rise Set
Actual Time 6:24 AM CDT 9:01 PM CDT
Civil Twilight 5:53 AM CDT 9:32 PM CDT
Nautical Twilight 5:15 AM CDT 10:10 PM CDT
Astronomical Twilight 4:31 AM CDT 10:53 PM CDT
Moon 9:08 PM CDT (7/16) 6:04 AM CDT (7/16)
Length of Visible Light 15h 38m
Length of Day
14h 36m
Full, 100% of the Moon is Illuminated
Jul 16
Full
Jul 16
Full
Jul 24
Last Quarter
Jul 31
New
Aug 7
First Quarter

Hourly Weather History & Observations

Time (CDT) Temp. Heat Index Dew Point Humidity Pressure Visibility Wind Dir Wind Speed Gust Speed Precip Events Conditions
12:56 AM 73.0 °F - 66.9 °F 81% 29.88 in 10.0 mi ESE 6.9 mph - N/A   Clear
1:56 AM 72.0 °F - 66.0 °F 81% 29.88 in 10.0 mi SSE 6.9 mph - N/A   Clear
2:56 AM 70.0 °F - 66.0 °F 87% 29.88 in 10.0 mi South 5.8 mph - N/A   Clear
3:56 AM 70.0 °F - 66.0 °F 87% 29.89 in 10.0 mi WSW 5.8 mph - N/A   Clear
4:56 AM 70.0 °F - 66.0 °F 87% 29.87 in 10.0 mi ESE 8.1 mph - N/A   Clear
5:56 AM 69.1 °F - 66.0 °F 90% 29.88 in 10.0 mi ESE 4.6 mph - N/A   Clear
6:56 AM 68.0 °F - 66.0 °F 93% 29.88 in 10.0 mi South 5.8 mph - N/A   Clear
7:56 AM 72.0 °F - 68.0 °F 87% 29.89 in 10.0 mi West 4.6 mph - N/A   Clear
8:56 AM 75.0 °F - 68.0 °F 79% 29.90 in 10.0 mi ESE 4.6 mph - N/A   Clear
9:56 AM 81.0 °F 84.4 °F 70.0 °F 69% 29.89 in 10.0 mi SW 3.5 mph - N/A   Clear
10:56 AM 86.0 °F 91.5 °F 71.1 °F 61% 29.90 in 10.0 mi East 11.5 mph - N/A   Clear
11:56 AM 88.0 °F 93.8 °F 71.1 °F 57% 29.90 in 10.0 mi South 8.1 mph - N/A   Clear
12:56 PM 91.0 °F 97.6 °F 71.1 °F 52% 29.88 in 10.0 mi SE 9.2 mph - N/A   Clear
1:56 PM 93.9 °F 99.1 °F 69.1 °F 44% 29.85 in 10.0 mi SSE 8.1 mph - N/A   Clear
2:56 PM 93.9 °F 98.6 °F 68.0 °F 43% 29.83 in 10.0 mi South 10.4 mph - N/A   Partly Cloudy
3:56 PM 96.1 °F 101.0 °F 68.0 °F 40% 29.82 in 10.0 mi South 12.7 mph 19.6 mph N/A   Clear
4:56 PM 97.0 °F 100.4 °F 66.0 °F 36% 29.81 in 10.0 mi South 12.7 mph - N/A   Clear
5:56 PM 96.1 °F 101.0 °F 68.0 °F 40% 29.80 in 10.0 mi SSE 17.3 mph 24.2 mph N/A   Clear
6:56 PM 93.9 °F 98.6 °F 68.0 °F 43% 29.79 in 10.0 mi SSE 12.7 mph - N/A   Clear
7:56 PM 91.9 °F 95.9 °F 68.0 °F 45% 29.80 in 10.0 mi SSE 11.5 mph - N/A   Clear
8:56 PM 87.1 °F 94.5 °F 73.0 °F 63% 29.79 in 10.0 mi SE 12.7 mph - N/A   Clear
9:56 PM 84.0 °F 88.4 °F 70.0 °F 63% 29.81 in 10.0 mi SE 13.8 mph - N/A   Clear
10:56 PM 81.0 °F 84.1 °F 69.1 °F 67% 29.83 in 10.0 mi SSE 11.5 mph - N/A   Clear
11:56 PM 79.0 °F - 69.1 °F 72% 29.83 in 10.0 mi SSE 10.4 mph - N/A   Clear